Time,TemperatureF,DewpointF,PressureIn,WindDirection,WindDirectionDegrees,WindSpeedMPH,WindSpeedGustMPH,Humidity,HourlyPrecipIn,Conditions,Clouds,dailyrainin,SoftwareType,DateUTC
2013-08-20 00:27:00,54.8,51.6,29.90,ESE,111,1.0,7.0,89,0.00,,---,0.00,VWS V14.01,2013-08-20 08:27:00,
2013-08-20 00:57:00,54.6,52.0,29.90,WSW,246,2.0,9.0,91,0.00,,---,0.00,VWS V14.01,2013-08-20 08:57:00,
2013-08-20 01:27:00,54.5,51.9,29.91,ENE,76,1.0,6.0,91,0.00,,---,0.00,VWS V14.01,2013-08-20 09:27:00,
2013-08-20 01:57:00,54.3,51.7,29.91,SSW,200,1.0,7.0,91,0.00,,---,0.00,VWS V14.01,2013-08-20 09:57:00,
2013-08-20 02:27:00,54.3,52.0,29.91,SE,146,1.0,7.0,92,0.00,,---,0.00,VWS V14.01,2013-08-20 10:27:00,
2013-08-20 02:57:00,54.3,52.0,29.92,ESE,111,0.0,6.0,92,0.00,,---,0.00,VWS V14.01,2013-08-20 10:57:00,
2013-08-20 03:27:00,54.2,51.6,29.93,ESE,108,1.0,8.0,91,0.00,,---,0.00,VWS V14.01,2013-08-20 11:27:00,
2013-08-20 03:57:00,54.3,51.4,29.93,North,4,2.0,6.0,90,0.00,,---,0.00,VWS V14.01,2013-08-20 11:57:00,
2013-08-20 04:27:00,54.1,51.5,29.94,SSE,148,0.0,5.0,91,0.00,,---,0.00,VWS V14.01,2013-08-20 12:27:00,
2013-08-20 04:57:00,54.0,51.7,29.94,SSE,162,1.0,6.0,92,0.00,,---,0.00,VWS V14.01,2013-08-20 12:57:00,
2013-08-20 05:27:00,53.9,51.6,29.95,SE,125,1.0,7.0,92,0.00,,---,0.00,VWS V14.01,2013-08-20 13:27:00,
2013-08-20 05:57:00,53.8,51.5,29.96,East,97,1.0,8.0,92,0.00,,---,0.00,VWS V14.01,2013-08-20 13:57:00,
2013-08-20 06:27:00,53.4,51.7,29.96,SE,134,1.0,9.0,94,0.00,,---,0.00,VWS V14.01,2013-08-20 14:27:00,
2013-08-20 06:57:00,53.7,51.7,29.96,NNE,30,0.0,8.0,93,0.00,,---,0.00,VWS V14.01,2013-08-20 14:57:00,
2013-08-20 07:27:00,53.9,51.6,29.97,SSW,198,1.0,11.0,92,0.00,,---,0.00,VWS V14.01,2013-08-20 15:27:00,
2013-08-20 07:57:00,54.9,52.0,29.97,SSW,193,4.0,10.0,90,0.00,,---,0.00,VWS V14.01,2013-08-20 15:57:00,
2013-08-20 08:27:00,55.5,52.3,29.98,SW,235,5.0,12.0,89,0.00,,---,0.00,VWS V14.01,2013-08-20 16:27:00,
2013-08-20 08:57:00,57.3,52.8,29.98,ESE,123,2.0,10.0,85,0.00,,---,0.00,VWS V14.01,2013-08-20 16:57:00,
2013-08-20 09:27:00,58.3,52.8,29.99,NW,325,3.0,11.0,82,0.00,,---,0.00,VWS V14.01,2013-08-20 17:27:00,
2013-08-20 09:57:00,57.1,52.6,30.00,SE,134,1.0,9.0,85,0.00,,---,0.00,VWS V14.01,2013-08-20 17:57:00,
2013-08-20 10:27:00,57.8,53.0,30.00,SSE,164,3.0,8.0,84,0.00,,---,0.00,VWS V14.01,2013-08-20 18:27:00,
2013-08-20 10:57:00,58.4,52.6,30.01,East,98,2.0,12.0,81,0.00,,---,0.00,VWS V14.01,2013-08-20 18:57:00,
2013-08-20 11:27:00,58.9,53.1,30.02,ENE,68,1.0,11.0,81,0.00,,---,0.00,VWS V14.01,2013-08-20 19:27:00,
2013-08-20 11:57:00,58.6,53.1,30.02,North,353,1.0,11.0,82,0.00,,---,0.00,VWS V14.01,2013-08-20 19:57:00,
2013-08-20 12:27:00,58.2,52.1,30.02,SW,217,1.0,11.0,80,0.00,,---,0.00,VWS V14.01,2013-08-20 20:27:00,
2013-08-20 12:57:00,57.8,52.3,30.03,SE,124,2.0,8.0,82,0.00,,---,0.00,VWS V14.01,2013-08-20 20:57:00,
2013-08-20 13:27:00,57.9,51.8,30.04,ENE,60,1.0,7.0,80,0.00,,---,0.00,VWS V14.01,2013-08-20 21:27:00,
2013-08-20 13:57:00,58.0,51.9,30.04,NE,37,3.0,9.0,80,0.00,,---,0.00,VWS V14.01,2013-08-20 21:57:00,
2013-08-20 14:27:00,58.2,51.7,30.04,ENE,60,0.0,10.0,79,0.00,,---,0.00,VWS V14.01,2013-08-20 22:27:00,
2013-08-20 14:57:00,58.6,52.1,30.05,SSW,204,2.0,13.0,79,0.00,,---,0.00,VWS V14.01,2013-08-20 22:57:00,
2013-08-20 15:27:00,58.6,52.5,30.04,SE,129,1.0,8.0,80,0.00,,---,0.00,VWS V14.01,2013-08-20 23:27:00,
2013-08-20 15:57:00,58.6,51.8,30.04,SW,222,2.0,15.0,78,0.00,,---,0.00,VWS V14.01,2013-08-20 23:57:00,
2013-08-20 16:27:00,58.8,51.6,30.04,NNE,18,3.0,11.0,77,0.00,,---,0.00,VWS V14.01,2013-08-21 00:27:00,
2013-08-20 16:57:00,58.0,51.9,30.05,NW,324,2.0,12.0,80,0.00,,---,0.00,VWS V14.01,2013-08-21 00:57:00,
2013-08-20 17:27:00,57.5,52.1,30.05,NNE,27,1.0,10.0,82,0.00,,---,0.00,VWS V14.01,2013-08-21 01:27:00,
2013-08-20 17:57:00,57.1,52.3,30.05,NNW,333,7.0,11.0,84,0.00,,---,0.00,VWS V14.01,2013-08-21 01:57:00,
2013-08-20 18:27:00,56.6,52.2,30.05,NNW,338,2.0,10.0,85,0.00,,---,0.00,VWS V14.01,2013-08-21 02:27:00,
2013-08-20 18:57:00,56.3,52.2,30.05,SSE,167,2.0,7.0,86,0.00,,---,0.00,VWS V14.01,2013-08-21 02:57:00,
2013-08-20 19:27:00,56.1,52.0,30.04,SE,138,1.0,7.0,86,0.00,,---,0.00,VWS V14.01,2013-08-21 03:27:00,
2013-08-20 19:57:00,55.8,52.3,30.04,South,175,0.0,4.0,88,0.00,,---,0.00,VWS V14.01,2013-08-21 03:57:00,
2013-08-20 20:27:00,55.5,52.0,30.04,ENE,63,1.0,7.0,88,0.00,,---,0.00,VWS V14.01,2013-08-21 04:27:00,
2013-08-20 20:57:00,54.9,52.0,30.05,South,180,1.0,6.0,90,0.00,,---,0.00,VWS V14.01,2013-08-21 04:57:00,
2013-08-20 21:27:00,54.8,52.2,30.05,SE,137,3.0,7.0,91,0.00,,---,0.00,VWS V14.01,2013-08-21 05:27:00,
2013-08-20 21:57:00,54.7,52.1,30.05,ESE,104,1.0,5.0,91,0.00,,---,0.00,VWS V14.01,2013-08-21 05:57:00,
2013-08-20 22:27:00,54.8,52.2,30.05,NE,53,2.0,11.0,91,0.00,,---,0.00,VWS V14.01,2013-08-21 06:27:00,
2013-08-20 22:57:00,54.5,52.5,30.04,NNE,23,4.0,15.0,93,0.00,,---,0.00,VWS V14.01,2013-08-21 06:57:00,
2013-08-20 23:27:00,54.4,52.4,30.04,East,96,2.0,12.0,93,0.00,,---,0.00,VWS V14.01,2013-08-21 07:27:00,
2013-08-20 23:57:00,54.2,52.2,30.04,West,269,8.0,13.0,93,0.00,,---,0.00,VWS V14.01,2013-08-21 07:57:00,